Tracking 20626 objects as of 8-Apr-2020
HD Live streaming from Space Station
objects crossing your sky now

OPS 5798 DEB

Track OPS 5798 DEB now!
10-day predictions


NORAD ID: 903
Int'l Code: 1964-063F
Perigee: 964.8 km
Apogee: 1,000.6 km
Inclination: 90.2 °
Period: 104.6 minutes
Semi major axis: 7353 km
RCS: 0.0502 m2 (small)
Launch date: October 6, 1964
Source: United States (US)
Launch site: AIR FORCE WESTERN TEST RANGE (AFWTR)

Note: This is SATELLITE DEBRIS
aabbcc
Your satellite tracking list
Your tracking list is empty




NASA's NSSDC Master Catalog

Two Line Element Set (TLE):
1   903U 64063F   20099.58700645 +.00000294 +00000-0 +28887-3 0  9997
2   903 090.1614 025.6860 0024336 116.6551 056.4604 13.76703964763002
Source of the keplerian elements: AFSPC